This is the latest recevied weather packets stored in our database for station/object K6FAK-13. If no packets are shown the sender has not sent any weather packets the latest 1 day(s).
| Time | Temp. | Humidity | Pressure | Rain* | Wind** | Luminosity | Snow |
|---|---|---|---|---|---|---|---|
| 1778040780 | 15.56° C | 81% | 1018.8 hPa | 0 mm | - | 0 W/m² | - |
| 1778040477 | 15.56° C | 81% | 1018.9 hPa | 0 mm | - | 0 W/m² | - |
| 1778040174 | 15.56° C | 81% | 1018.8 hPa | 0 mm | - | 0 W/m² | - |
| 1778039871 | 15.56° C | 81% | 1018.7 hPa | 0 mm | - | 0 W/m² | - |
| 1778039265 | 16.11° C | 81% | 1018.8 hPa | 0 mm | - | 0 W/m² | - |
| 1778038962 | 16.11° C | 81% | 1018.7 hPa | 0 mm | - | 0 W/m² | - |
| 1778038659 | 16.11° C | 81% | 1018.6 hPa | 0 mm | - | 0 W/m² | - |
| 1778038356 | 16.11° C | 81% | 1018.7 hPa | 0 mm | - | 0 W/m² | - |
| 1778037750 | 16.11° C | 81% | 1018.3 hPa | 0 mm | - | 0 W/m² | - |
| 1778037446 | 16.11° C | 80% | 1018.2 hPa | 0 mm | - | 0 W/m² | - |
| 1778037144 | 16.11° C | 80% | 1018.2 hPa | 0 mm | - | 0 W/m² | - |
| 1778036842 | 16.11° C | 80% | 1018.1 hPa | 0 mm | - | 0 W/m² | - |
| 1778036236 | 16.67° C | 80% | 1018 hPa | 0 mm | - | 3 W/m² | - |
| 1778035932 | 16.67° C | 80% | 1017.8 hPa | 0 mm | - | 4 W/m² | - |
| 1778035022 | 16.67° C | 80% | 1018 hPa | 0 mm | - | 12 W/m² | - |
| 1778034114 | 16.67° C | 81% | 1017.7 hPa | 0 mm | - | 32 W/m² | - |
| 1778033812 | 16.67° C | 81% | 1017.7 hPa | 0 mm | - | 37 W/m² | - |
| 1778033205 | 16.67° C | 80% | 1017.7 hPa | 0 mm | - | 56 W/m² | - |
| 1778032600 | 17.22° C | 79% | 1017.8 hPa | 0 mm | - | 64 W/m² | - |
| 1778031995 | 17.22° C | 78% | 1017.7 hPa | 0 mm | - | 69 W/m² | - |
| 1778031389 | 17.78° C | 78% | 1017.9 hPa | 0 mm | - | 72 W/m² | - |
| 1778030782 | 17.78° C | 78% | 1017.7 hPa | 0 mm | - | 81 W/m² | - |
| 1778030478 | 17.78° C | 77% | 1017.7 hPa | 0 mm | - | 85 W/m² | - |
| 1778030176 | 17.78° C | 78% | 1017.7 hPa | 0 mm | - | 93 W/m² | - |
| 1778029872 | 17.78° C | 77% | 1017.7 hPa | 0 mm | - | 112 W/m² | - |
* Rain latest hour (hover to see other rain measurements)
** Current wind speed in m/s (hover to see current wind gust speed)